ELY546 LGAV-LLBG

Flight info

Callsign ELY546
Flight time N/A
Altitude 37000
Route N0461F370 KEA UL52 LINRO DCT VANZA DCT PIKOG L609 ZUKKO
Aircraft B739/M-SDE2E3FGHIRWXY/LB1

Departure

Time 2026-05-04 19:13
Airport Athens Eleftherios Venizelos International Airport (LGAV)

Arrival

Time N/A
Airport Ben Gurion International Airport (LLBG)
Time Latitude Longitude Altitude Speed Heading
2026-05-04 18:23 37.93409 23.94657 316 ft 0 kts 307°
2026-05-04 19:03 37.93402 23.94669 316 ft 3 kts 301°
2026-05-04 19:03 37.93393 23.94692 316 ft 3 kts 288°
2026-05-04 19:03 37.93388 23.94717 316 ft 3 kts 275°
2026-05-04 19:04 37.93388 23.94742 316 ft 3 kts 259°
2026-05-04 19:04 37.93394 23.94765 316 ft 3 kts 238°
2026-05-04 19:04 37.93403 23.94780 316 ft 1 kts 217°
2026-05-04 19:04 37.93404 23.94781 316 ft 0 kts 217°
2026-05-04 19:08 37.93402 23.94778 316 ft 3 kts 218°
2026-05-04 19:08 37.93376 23.94754 316 ft 10 kts 217°
2026-05-04 19:08 37.93313 23.94694 316 ft 12 kts 216°
2026-05-04 19:09 37.93250 23.94634 316 ft 11 kts 218°
2026-05-04 19:09 37.93178 23.94598 316 ft 11 kts 189°
2026-05-04 19:09 37.93105 23.94598 316 ft 8 kts 150°
2026-05-04 19:09 37.93067 23.94653 316 ft 9 kts 129°
2026-05-04 19:10 37.93016 23.94674 316 ft 8 kts 203°
2026-05-04 19:10 37.92982 23.94647 316 ft 9 kts 216°
2026-05-04 19:10 37.92866 23.94535 316 ft 22 kts 216°
2026-05-04 19:10 37.92735 23.94414 316 ft 23 kts 218°
2026-05-04 19:11 37.92611 23.94294 316 ft 22 kts 216°
2026-05-04 19:11 37.92507 23.94197 316 ft 12 kts 216°
2026-05-04 19:11 37.92432 23.94174 316 ft 12 kts 149°
2026-05-04 19:11 37.92412 23.94267 316 ft 11 kts 89°
2026-05-04 19:12 37.92403 23.94362 316 ft 11 kts 62°
2026-05-04 19:12 37.92716 23.94670 316 ft 81 kts 37°
2026-05-04 19:12 37.93351 23.95273 317 ft 146 kts 37°
2026-05-04 19:13 37.94270 23.96148 662 ft 171 kts 35°
2026-05-04 19:13 37.95236 23.97005 1602 ft 167 kts 33°
2026-05-04 19:13 37.96187 23.97862 2375 ft 170 kts 34°
2026-05-04 19:13 37.97142 23.98750 3128 ft 171 kts 34°
2026-05-04 19:14 37.98056 23.99748 3781 ft 181 kts 48°
2026-05-04 19:14 37.98555 24.01336 4126 ft 213 kts 79°
2026-05-04 19:14 37.98316 24.03315 4474 ft 245 kts 108°
2026-05-04 19:14 37.97429 24.05256 5073 ft 265 kts 122°
2026-05-04 19:15 37.96170 24.07069 5836 ft 281 kts 130°
2026-05-04 19:15 37.94801 24.08890 6752 ft 289 kts 131°
2026-05-04 19:15 37.93389 24.10734 7717 ft 294 kts 131°
2026-05-04 19:15 37.91948 24.12607 8650 ft 299 kts 131°
2026-05-04 19:16 37.90481 24.14515 9574 ft 304 kts 131°
2026-05-04 19:16 37.89000 24.16440 10544 ft 306 kts 131°
2026-05-04 19:16 37.87490 24.18403 11266 ft 319 kts 131°
2026-05-04 19:16 37.85893 24.20476 11732 ft 338 kts 131°
2026-05-04 19:17 37.84220 24.22648 12358 ft 350 kts 131°
2026-05-04 19:17 37.82510 24.24868 13172 ft 355 kts 131°
2026-05-04 19:17 37.80772 24.27122 14008 ft 359 kts 131°
2026-05-04 19:17 37.79018 24.29396 14832 ft 363 kts 131°
2026-05-04 19:18 37.77276 24.31652 15611 ft 367 kts 131°
2026-05-04 19:18 37.75482 24.33976 16375 ft 371 kts 131°
2026-05-04 19:18 37.73678 24.36325 17125 ft 375 kts 131°
2026-05-04 19:18 37.71856 24.38719 17828 ft 379 kts 131°
2026-05-04 19:19 37.70011 24.41129 18527 ft 384 kts 132°
2026-05-04 19:19 37.68142 24.43560 19177 ft 388 kts 132°
2026-05-04 19:19 37.66275 24.45984 19823 ft 392 kts 132°
2026-05-04 19:19 37.64363 24.48462 20448 ft 396 kts 132°
2026-05-04 19:20 37.62433 24.50960 21033 ft 400 kts 132°
2026-05-04 19:20 37.60480 24.53485 21617 ft 404 kts 132°
2026-05-04 19:20 37.58507 24.56032 22153 ft 408 kts 132°
2026-05-04 19:20 37.56539 24.58569 22690 ft 411 kts 132°
2026-05-04 19:21 37.54507 24.61188 23227 ft 415 kts 132°
2026-05-04 19:21 37.52479 24.63799 23718 ft 419 kts 132°
2026-05-04 19:21 37.50433 24.66432 24192 ft 422 kts 132°
2026-05-04 19:21 37.48372 24.69081 24656 ft 425 kts 132°
2026-05-04 19:22 37.46290 24.71755 25103 ft 429 kts 132°
2026-05-04 19:22 37.44194 24.74445 25524 ft 432 kts 132°
2026-05-04 19:22 37.42090 24.77143 25952 ft 435 kts 132°
2026-05-04 19:22 37.39954 24.79879 26355 ft 438 kts 132°
2026-05-04 19:23 37.37812 24.82622 26756 ft 441 kts 132°
2026-05-04 19:23 37.35670 24.85374 27150 ft 443 kts 131°
2026-05-04 19:23 37.33512 24.88166 27494 ft 446 kts 132°
2026-05-04 19:23 37.31332 24.90955 27842 ft 449 kts 132°
2026-05-04 19:24 37.29159 24.93724 28189 ft 451 kts 132°
2026-05-04 19:24 37.26946 24.96537 28499 ft 455 kts 132°
2026-05-04 19:24 37.24717 24.99369 28838 ft 457 kts 132°
2026-05-04 19:24 37.22477 25.02212 29123 ft 460 kts 132°
2026-05-04 19:25 37.20225 25.05069 29442 ft 461 kts 132°
2026-05-04 19:25 37.17961 25.07940 29717 ft 464 kts 132°
2026-05-04 19:25 37.15685 25.10837 29998 ft 466 kts 131°
2026-05-04 19:25 37.13556 25.13897 30250 ft 467 kts 126°
2026-05-04 19:26 37.11658 25.17207 30453 ft 469 kts 121°
2026-05-04 19:26 37.09869 25.20643 30677 ft 471 kts 120°
2026-05-04 19:26 37.08095 25.24109 30888 ft 474 kts 120°
2026-05-04 19:26 37.06309 25.27589 31092 ft 477 kts 120°
2026-05-04 19:27 37.04538 25.31028 31289 ft 479 kts 120°
2026-05-04 19:27 37.02729 25.34536 31468 ft 482 kts 120°
2026-05-04 19:27 37.01057 25.37937 31660 ft 483 kts 117°
2026-05-04 19:27 36.99329 25.41723 31921 ft 483 kts 116°
2026-05-04 19:28 36.97663 25.45372 32172 ft 484 kts 116°
2026-05-04 19:28 36.95989 25.49029 32379 ft 485 kts 116°
2026-05-04 19:28 36.94308 25.52692 32597 ft 486 kts 116°
2026-05-04 19:28 36.92622 25.56364 32814 ft 487 kts 116°
2026-05-04 19:29 36.90931 25.60035 33026 ft 488 kts 116°
2026-05-04 19:29 36.89236 25.63713 33250 ft 488 kts 116°
2026-05-04 19:29 36.87535 25.67398 33416 ft 490 kts 117°
2026-05-04 19:29 36.85826 25.71094 33596 ft 492 kts 117°
2026-05-04 19:30 36.84128 25.74795 33814 ft 492 kts 116°
2026-05-04 19:30 36.82465 25.78466 33986 ft 493 kts 116°
2026-05-04 19:30 36.80742 25.82240 34152 ft 495 kts 116°
2026-05-04 19:30 36.79033 25.85965 34369 ft 495 kts 117°
2026-05-04 19:31 36.77317 25.89693 34571 ft 495 kts 117°
2026-05-04 19:31 36.75623 25.93366 34764 ft 495 kts 117°
2026-05-04 19:31 36.73900 25.97091 34964 ft 495 kts 117°
2026-05-04 19:31 36.72180 26.00806 35109 ft 497 kts 117°
2026-05-04 19:32 36.70445 26.04546 35113 ft 499 kts 117°
2026-05-04 19:32 36.66970 26.12023 35118 ft 496 kts 117°
2026-05-04 19:33 36.63524 26.19421 35116 ft 494 kts 117°
2026-05-04 19:33 36.60074 26.26810 35113 ft 492 kts 117°
2026-05-04 19:34 36.56630 26.34172 35111 ft 493 kts 117°
2026-05-04 19:34 36.53176 26.41536 35109 ft 493 kts 117°
2026-05-04 19:35 36.49887 26.48535 35105 ft 492 kts 117°
2026-05-04 19:35 36.46426 26.55883 35103 ft 492 kts 118°
2026-05-04 19:36 36.42973 26.63201 35101 ft 491 kts 118°
2026-05-04 19:36 36.39518 26.70503 35101 ft 490 kts 118°
2026-05-04 19:37 36.36062 26.77794 35101 ft 490 kts 118°
2026-05-04 19:37 36.32611 26.85058 35101 ft 489 kts 118°
2026-05-04 19:38 36.29159 26.92309 35101 ft 488 kts 118°
2026-05-04 19:38 36.25709 26.99538 35095 ft 487 kts 118°
2026-05-04 19:39 36.22262 27.06747 35096 ft 486 kts 118°
2026-05-04 19:39 36.18819 27.13932 35087 ft 485 kts 118°
2026-05-04 19:40 36.15376 27.21100 35078 ft 484 kts 118°
2026-05-04 19:40 36.11934 27.28256 35073 ft 483 kts 118°
2026-05-04 19:41 36.08493 27.35392 35072 ft 483 kts 118°
2026-05-04 19:41 36.05049 27.42518 35069 ft 483 kts 118°
2026-05-04 19:42 36.01600 27.49641 35067 ft 483 kts 119°
2026-05-04 19:42 35.98172 27.56705 35066 ft 483 kts 119°
2026-05-04 19:43 35.94700 27.63846 35065 ft 486 kts 119°
2026-05-04 19:43 35.91217 27.70989 35063 ft 484 kts 119°
2026-05-04 19:44 35.87747 27.78097 35062 ft 483 kts 119°
2026-05-04 19:44 35.84284 27.85175 35061 ft 483 kts 119°
2026-05-04 19:45 35.80803 27.92272 35061 ft 483 kts 119°
2026-05-04 19:45 35.77327 27.99346 35060 ft 483 kts 119°
2026-05-04 19:46 35.73842 28.06424 35060 ft 483 kts 120°
2026-05-04 19:46 35.70370 28.13462 35054 ft 483 kts 120°
2026-05-04 19:47 35.66875 28.20531 35050 ft 484 kts 120°
2026-05-04 19:47 35.63368 28.27609 35049 ft 485 kts 120°
2026-05-04 19:48 35.59850 28.34696 35049 ft 486 kts 120°
2026-05-04 19:48 35.56324 28.41784 35048 ft 487 kts 120°
2026-05-04 19:49 35.52783 28.48886 35047 ft 488 kts 120°
2026-05-04 19:49 35.49231 28.55997 35047 ft 489 kts 120°
2026-05-04 19:50 35.45666 28.63120 35047 ft 490 kts 121°
2026-05-04 19:50 35.42091 28.70248 35045 ft 491 kts 121°
2026-05-04 19:51 35.38504 28.77384 35032 ft 492 kts 121°
2026-05-04 19:51 35.34935 28.84470 35019 ft 492 kts 121°
2026-05-04 19:52 35.31331 28.91612 35010 ft 492 kts 121°